GW0776 Weather Reports


time (UTC)temp
C
wind
direction
speed
KPH
gust
KPH
rain 1hr
cm
rain 24hr
cm
rain mn
cm
humidity
%
barometer
mb
20260502190510 23 192 4.8 17.7 0.00 2.01 0.00 50 1020.5
20260502190010 23 337 6.4 17.7 0.00 2.06 0.00 50 1020.7
20260502185510 23 97 6.4 11.3 0.00 2.13 0.00 51 1020.6
20260502185010 23 327 1.6 16.1 0.00 2.21 0.00 51 1020.6
20260502184510 23 279 9.7 16.1 0.00 2.24 0.00 50 1020.8
20260502184010 23 314 3.2 16.1 0.00 2.26 0.00 51 1020.8
20260502183511 23 94 8.0 14.5 0.00 2.29 0.00 52 1020.9
20260502183011 22 27 6.4 17.7 0.00 2.31 0.00 51 1020.9
20260502182010 22 284 11.3 14.5 0.00 2.44 0.00 53 1021.0
20260502181511 22 71 3.2 17.7 0.00 2.44 0.00 52 1021.1
20260502181010 22 229 1.6 17.7 0.00 2.44 0.00 52 1021.2
20260502180510 22 285 6.4 16.1 0.00 2.46 0.00 53 1021.1
20260502164010 21 246 4.8 14.5 0.00 2.77 0.00 60 1021.7
20260502163510 21 70 4.8 14.5 0.00 2.82 0.00 63 1021.8
20260502163011 20 112 3.2 14.5 0.00 2.87 0.00 64 1021.9
20260502162511 20 3 14.5 14.5 0.00 2.92 0.00 64 1021.9
20260502161511 20 323 6.4 17.7 0.00 3.00 0.00 64 1021.8
20260502161011 20 337 6.4 12.9 0.00 3.02 0.00 65 1021.8
20260502160511 20 104 3.2 12.9 0.00 3.07 0.00 66 1021.7
20260502152011 18 306 12.9 16.1 0.00 3.17 0.00 75 1021.7
20260502151511 18 311 8.0 16.1 0.00 3.17 0.00 75 1021.6
20260502151011 18 113 11.3 16.1 0.00 3.17 0.00 75 1021.5
20260502150511 17 321 4.8 14.5 0.00 3.17 0.00 77 1021.6
20260502130510 13 264 1.6 9.7 0.00 4.70 0.00 91 1020.3
20260502123511 12 341 3.2 8.0 0.00 4.93 0.00 93 1019.8
20260502122510 12 316 0.0 11.3 0.00 5.13 0.00 93 1019.7
20260502122010 12 3 4.8 3.2 0.00 5.26 0.00 93 1019.6
20260502121510 11 310 1.6 6.4 0.00 5.26 0.00 93 1019.4
20260502120510 11 331 3.2 6.4 0.00 5.31 0.00 93 1019.4
20260502115510 11 352 0.0 4.8 0.00 5.59 0.00 93 1019.3
20260502114010 11 321 1.6 4.8 0.00 5.89 0.00 94 1019.2
20260502113510 11 321 3.2 4.8 0.00 5.92 0.00 94 1019.1
20260502112510 11 20 1.6 6.4 0.00 5.94 0.00 93 1019.0
20260502112010 11 17 0.0 8.0 0.00 5.94 0.00 93 1019.0
20260502111510 11 315 4.8 8.0 0.00 5.97 0.00 93 1019.0
20260502111010 11 332 0.0 6.4 0.00 6.07 0.00 93 1018.9
20260502110010 11 308 3.2 6.4 0.00 6.32 0.00 93 1018.8
20260502105510 11 321 4.8 6.4 0.00 6.40 0.00 93 1018.8
20260502105010 11 326 4.8 6.4 0.00 6.40 0.00 93 1018.8
20260502104510 11 323 1.6 4.8 0.00 6.40 0.00 93 1018.7
20260502104010 11 325 1.6 4.8 0.00 6.43 0.00 93 1018.6
20260502103510 11 312 1.6 8.0 0.00 6.53 0.00 93 1018.6
20260502102510 11 306 1.6 6.4 0.00 6.78 0.00 93 1018.6
20260502102011 11 327 1.6 4.8 0.00 6.81 0.00 93 1018.6
20260502101510 11 321 1.6 9.7 0.00 6.83 0.00 93 1018.4
20260502101010 11 326 3.2 9.7 0.00 6.83 0.00 93 1018.3
20260502091511 12 355 3.2 6.4 0.00 8.41 0.00 91 1017.4
20260502071511 12 312 3.2 8.0 0.00 11.10 0.00 91 1017.2
20260502071010 12 331 3.2 14.5 0.00 11.10 0.00 91 1017.3
20260502070011 12 314 1.6 11.3 0.00 11.10 0.00 91 1017.2
20260502065011 12 17 1.6 9.7 0.00 11.10 0.00 92 1017.0
20260502064511 12 3 0.0 12.9 0.00 11.10 0.00 92 1017.0
20260502063511 12 353 3.2 12.9 0.00 11.10 0.00 93 1016.9
20260502063010 12 350 3.2 14.5 0.00 11.10 0.00 93 1017.0
20260502062511 12 199 3.2 14.5 0.00 11.10 0.00 93 1017.0
20260502062010 12 356 3.2 9.7 0.00 11.13 0.00 93 1016.9
20260502061010 12 3 1.6 11.3 0.00 11.13 0.00 93 1016.8
20260502060510 12 119 3.2 14.5 0.00 11.13 0.00 93 1016.8
20260502060010 12 329 4.8 14.5 0.00 11.25 0.00 93 1016.9
20260502055510 12 339 3.2 12.9 0.00 11.35 0.00 94 1016.8
20260502055011 12 335 1.6 12.9 0.00 11.35 0.00 94 1016.9
20260502054511 12 287 4.8 9.7 0.00 11.35 0.00 94 1016.8
20260502053010 13 285 3.2 16.1 0.00 11.35 0.00 94 1016.8
20260502052510 13 334 4.8 16.1 0.00 11.35 0.00 94 1016.8
20260502052010 13 321 8.0 12.9 0.00 11.38 0.00 95 1016.8
20260502051510 13 8 12.9 20.9 0.00 11.43 0.00 95 1016.8
20260502050510 13 320 3.2 16.1 0.00 11.76 0.00 95 1016.8
20260502050011 13 8 8.0 16.1 0.00 12.14 0.00 95 1016.7
20260502045511 13 17 3.2 12.9 0.00 12.62 12.14 95 1016.8
20260502044510 13 77 3.2 11.3 0.00 12.65 12.14 95 1016.7
20260502044010 13 42 1.6 12.9 0.00 12.65 12.14 95 1016.6
20260502043510 13 254 3.2 12.9 0.00 12.65 12.14 95 1016.5
20260502043010 13 120 1.6 12.9 0.00 12.65 12.14 95 1016.5
20260502042510 13 44 4.8 17.7 0.00 12.65 12.14 96 1016.6
20260502042010 13 273 3.2 17.7 0.00 12.65 12.14 96 1016.6
20260502041510 13 321 8.0 17.7 0.00 12.65 12.14 96 1016.8
20260502041010 13 333 4.8 17.7 0.00 12.65 12.14 96 1016.9
20260502040510 13 354 12.9 16.1 0.00 12.65 12.14 96 1016.9
20260502040010 13 115 4.8 16.1 0.00 12.65 12.14 96 1016.9
20260502035510 13 305 4.8 16.1 0.00 12.65 12.14 96 1016.8
20260502035010 13 319 4.8 14.5 0.00 12.65 12.14 96 1016.7
20260502034510 13 314 8.0 14.5 0.00 12.65 12.14 96 1016.6
20260502034010 13 302 4.8 14.5 0.00 12.65 12.14 96 1016.6
20260502033010 13 350 6.4 14.5 0.03 12.65 12.14 96 1016.5
20260502032510 13 140 1.6 14.5 0.05 12.65 12.14 96 1016.4
20260502032010 13 302 4.8 16.1 0.10 12.65 12.14 96 1016.3
20260502031510 13 42 4.8 16.1 0.13 12.65 12.14 96 1016.1
20260502030511 13 358 8.0 14.5 0.18 12.65 12.14 96 1015.8
20260502030011 13 314 6.4 12.9 0.20 12.65 12.14 96 1015.7
20260502025011 13 277 3.2 14.5 0.23 12.65 12.14 96 1015.3
20260502024011 13 250 3.2 11.3 0.28 12.65 12.14 96 1015.3
20260502023511 13 312 4.8 11.3 0.28 12.62 12.12 96 1015.6
20260502023011 13 339 1.6 14.5 0.36 12.62 12.12 96 1015.7
20260502022511 13 269 4.8 14.5 0.36 12.60 12.09 96 1015.4
20260502021511 13 308 4.8 17.7 0.33 12.52 12.01 96 1015.2
20260502021011 13 323 3.2 12.9 0.33 12.50 11.99 96 1015.1
20260502020513 13 260 3.2 16.1 0.30 12.47 11.96 96 1015.3
20260502020011 13 302 3.2 17.7 0.30 12.45 11.94 96 1015.3
20260502015511 13 319 6.4 17.7 0.28 12.42 11.91 96 1015.1
20260502015011 13 190 3.2 14.5 0.28 12.42 11.91 96 1015.2
20260502014511 13 355 6.4 14.5 0.28 12.40 11.89 96 1015.0
20260502014011 13 314 4.8 16.1 0.25 12.37 11.86 95 1014.8
20260502013511 13 193 1.6 16.1 0.23 12.34 11.84 96 1014.6
20260502013011 13 292 4.8 14.5 0.18 12.27 11.76 96 1014.4
20260502012511 14 347 6.4 20.9 0.15 12.24 11.73 96 1014.4
20260502012011 14 290 4.8 20.9 0.15 12.22 11.71 95 1014.3
20260502011511 14 353 12.9 19.3 0.15 12.19 11.68 96 1014.7
20260502011011 14 319 6.4 20.9 0.18 12.17 11.66 96 1014.8
20260502010511 14 312 4.8 20.9 0.23 12.17 11.66 96 1014.9
20260502010011 14 354 8.0 22.5 0.20 12.14 11.63 96 1014.1
20260502005511 15 304 0.0 22.5 0.23 12.14 11.63 96 1013.5
20260502005011 15 341 4.8 16.1 0.23 12.14 11.63 96 1012.9
20260502004511 14 342 3.2 17.7 0.20 12.12 11.61 96 1012.6
20260502004011 15 87 3.2 17.7 0.20 12.12 11.61 96 1012.9
20260502003511 15 32 8.0 16.1 0.23 12.12 11.61 96 1013.6
20260502002510 15 318 4.8 12.9 0.23 12.09 11.58 96 1014.0
20260502001511 15 293 3.2 12.9 0.38 12.04 11.53 96 1013.6
20260502001011 15 331 3.2 8.0 0.43 11.99 11.48 96 1013.6
20260502000510 15 295 4.8 9.7 0.46 11.94 11.43 96 1013.9
20260502000011 15 331 8.0 14.5 0.58 11.94 11.43 96 1013.6
20260501235511 15 3 1.6 14.5 0.56 11.91 11.40 96 1013.5
20260501235011 15 354 3.2 9.7 0.56 11.91 11.40 96 1012.8
20260501234010 15 154 1.6 14.5 0.56 11.91 11.40 95 1012.6
20260501233510 15 129 3.2 14.5 0.53 11.89 11.38 96 1012.5
20260501233010 15 254 1.6 12.9 0.53 11.89 11.38 96 1012.7
20260501232510 15 114 1.6 12.9 0.51 11.86 11.35 96 1012.1
20260501232010 15 84 6.4 12.9 0.43 11.79 11.28 95 1012.2
20260501231511 15 55 4.8 4.8 0.30 11.66 11.15 95 1013.1
20260501230510 15 284 3.2 11.3 0.15 11.51 11.00 95 1012.7
20260501230010 15 94 1.6 11.3 0.00 11.35 10.85 95 1012.6
20260501225510 15 343 3.2 17.7 0.00 11.35 10.85 95 1012.7
20260501225010 15 13 0.0 17.7 0.00 11.35 10.85 95 1011.5
20260501224511 15 94 17.7 25.7 0.00 11.35 10.85 95 1010.9
20260501224010 15 146 6.4 25.7 0.03 11.35 10.85 96 1011.1
20260501223511 15 13 3.2 17.7 0.05 11.35 10.85 96 1011.4
20260501222510 15 84 3.2 19.3 0.05 11.35 10.85 96 1011.3
20260501222010 15 357 4.8 16.1 0.05 11.35 10.85 96 1011.5
20260501221510 15 84 1.6 16.1 0.05 11.35 10.85 96 1011.8
20260501221010 15 333 1.6 16.1 0.08 11.35 10.85 96 1012.1
20260501220511 15 291 4.8 12.9 0.08 11.35 10.85 96 1012.3
20260501215510 16 350 1.6 14.5 0.10 11.35 10.85 96 1012.7
20260501215010 16 196 4.8 14.5 0.15 11.35 10.85 96 1012.8
20260501214510 16 312 4.8 14.5 0.18 11.35 10.85 96 1012.9
20260501214010 16 355 4.8 16.1 0.18 11.33 10.82 96 1012.5
20260501213010 16 292 3.2 9.7 0.20 11.30 10.79 96 1012.3
20260501212510 16 302 4.8 8.0 0.28 11.30 10.79 96 1012.5
20260501212010 16 101 1.6 11.3 0.33 11.30 10.79 96 1012.1
20260501211510 16 136 4.8 16.1 0.36 11.30 10.79 96 1011.1
20260501210510 16 118 6.4 14.5 0.41 11.28 10.77 96 1010.5
20260501210010 16 129 1.6 17.7 0.38 11.25 10.74 96 1010.8
20260501205510 16 223 4.8 17.7 0.38 11.25 10.74 96 1010.5
20260501204510 16 317 4.8 11.3 0.38 11.18 10.67 96 1012.1
20260501204010 16 138 1.6 14.5 0.36 11.15 10.64 96 1011.0
20260501203010 16 356 4.8 12.9 0.33 11.10 10.59 97 1011.0
20260501202011 16 298 3.2 16.1 0.28 10.97 10.46 96 1010.7
20260501201511 16 296 3.2 16.1 0.25 10.95 10.44 96 1010.9
20260501200011 16 337 8.0 16.1 0.28 10.87 10.36 97 1010.6
20260501195511 16 339 12.9 16.1 0.36 10.87 10.36 97 1010.2
20260501195011 16 313 3.2 11.3 0.41 10.85 10.34 97 1010.4
20260501193511 16 140 0.0 8.0 0.43 10.79 10.29 97 1010.6
20260501193011 16 318 4.8 6.4 0.43 10.77 10.26 97 1010.6
20260501192511 16 3 1.6 6.4 0.43 10.72 10.21 97 1010.5
20260501192011 16 254 0.0 12.9 0.48 10.69 10.19 97 1010.2
20260501191511 16 299 0.0 12.9 0.48 10.69 10.19 97 1010.0
20260501191011 16 3 0.0 4.8 0.48 10.69 10.19 97 1010.8